TimeEDT,TemperatureF,Dew PointF,Humidity,Sea Level PressureIn,VisibilityMPH,Wind Direction,Wind SpeedMPH,Gust SpeedMPH,PrecipitationIn,Events,Conditions,WindDirDegrees,DateUTC
12:53 AM,46.9,41.0,80,30.31,10.0,Calm,Calm,-,N/A,,Overcast,0,2013-10-30 04:53:00
1:53 AM,46.0,41.0,83,30.28,10.0,Calm,Calm,-,N/A,,Scattered Clouds,0,2013-10-30 05:53:00
2:53 AM,46.9,39.9,77,30.27,10.0,Calm,Calm,-,N/A,,Mostly Cloudy,0,2013-10-30 06:53:00
3:53 AM,46.9,39.9,77,30.26,9.0,Calm,Calm,-,N/A,,Clear,0,2013-10-30 07:53:00
4:53 AM,46.9,42.1,83,30.25,8.0,Calm,Calm,-,0.00,Rain,Light Rain,0,2013-10-30 08:53:00
5:53 AM,46.0,43.0,89,30.24,6.0,Calm,Calm,-,0.05,,Mostly Cloudy,0,2013-10-30 09:53:00
6:53 AM,46.0,43.0,89,30.25,3.0,Calm,Calm,-,N/A,,Overcast,0,2013-10-30 10:53:00
7:53 AM,46.0,44.1,93,30.24,3.0,Calm,Calm,-,N/A,,Overcast,0,2013-10-30 11:53:00
8:02 AM,46.4,44.6,93,30.23,2.0,Calm,Calm,-,N/A,,Overcast,0,2013-10-30 12:02:00
8:53 AM,48.9,45.0,86,30.25,3.0,Calm,Calm,-,N/A,,Overcast,0,2013-10-30 12:53:00
9:12 AM,48.2,46.4,93,30.25,1.8,Calm,Calm,-,N/A,,Overcast,0,2013-10-30 13:12:00
9:27 AM,50.0,46.4,87,30.25,2.0,Calm,Calm,-,N/A,,Overcast,0,2013-10-30 13:27:00
9:34 AM,50.0,46.4,87,30.25,3.0,Calm,Calm,-,N/A,,Mostly Cloudy,0,2013-10-30 13:34:00
9:53 AM,52.0,46.0,80,30.25,5.0,Calm,Calm,-,N/A,,Haze,0,2013-10-30 13:53:00
10:53 AM,57.0,48.0,72,30.24,7.0,Calm,Calm,-,N/A,,Clear,0,2013-10-30 14:53:00
11:53 AM,59.0,48.0,67,30.24,9.0,Calm,Calm,-,N/A,,Overcast,0,2013-10-30 15:53:00
12:53 PM,61.0,48.0,62,30.22,9.0,Calm,Calm,-,N/A,,Overcast,0,2013-10-30 16:53:00
1:53 PM,63.0,48.9,60,30.19,10.0,Calm,Calm,-,N/A,,Overcast,0,2013-10-30 17:53:00
2:53 PM,66.0,48.9,54,30.16,10.0,Calm,Calm,-,N/A,,Scattered Clouds,0,2013-10-30 18:53:00
3:53 PM,66.0,50.0,56,30.15,10.0,Calm,Calm,-,N/A,,Scattered Clouds,0,2013-10-30 19:53:00
4:53 PM,66.9,48.9,52,30.14,10.0,Calm,Calm,-,N/A,,Clear,0,2013-10-30 20:53:00
5:53 PM,63.0,48.9,60,30.15,10.0,ESE,3.5,-,N/A,,Mostly Cloudy,110,2013-10-30 21:53:00
6:53 PM,61.0,50.0,67,30.17,10.0,Calm,Calm,-,N/A,,Overcast,0,2013-10-30 22:53:00
7:53 PM,60.1,50.0,69,30.18,10.0,Calm,Calm,-,N/A,,Overcast,0,2013-10-30 23:53:00
8:53 PM,55.0,48.9,80,30.19,10.0,Calm,Calm,-,N/A,,Mostly Cloudy,0,2013-10-31 00:53:00
9:53 PM,57.9,51.1,78,30.18,10.0,Calm,Calm,-,N/A,,Overcast,0,2013-10-31 01:53:00
10:53 PM,57.9,51.1,78,30.19,10.0,Calm,Calm,-,N/A,,Overcast,0,2013-10-31 02:53:00
11:53 PM,55.9,51.1,84,30.17,10.0,Calm,Calm,-,N/A,,Overcast,0,2013-10-31 03:53:00